Location: Unspecified
(0.0000°N, 0.0000°E)
Time: 19:43:03
(UTC+00:00)

Transit 2A Rocket - All Passes

Search period start: 29 July 2016 00:00
Search period end: 08 August 2016 00:00
Orbit: 584 x 920 km, 66.7° (Epoch: 29 July)

Date Brightness Start Highest point End Pass type
(mag) Time Alt. Az. Time Alt. Az. Time Alt. Az.
29 Jul - 01:30:33 10° ESE 01:31:29 10° ESE 01:32:26 10° E night (unlit)
29 Jul - 03:08:46 10° SW 03:13:39 46° WNW 03:19:00 10° N visible
29 Jul - 13:58:07 10° N 14:02:44 30° ENE 14:06:59 10° SE daylight
29 Jul - 15:42:06 10° WNW 15:44:57 15° WSW 15:47:41 10° SW daylight
30 Jul - 02:26:19 10° SSW 02:31:22 83° ESE 02:36:58 10° NNE visible
30 Jul - 13:17:36 10° NE 13:20:20 14° ENE 13:22:58 10° E daylight
30 Jul - 14:58:10 10° NW 15:02:47 32° WSW 15:07:03 10° S daylight
31 Jul - 01:44:28 10° S 01:49:10 39° ESE 01:54:17 10° NE night (unlit)
31 Jul - 03:29:02 10° W 03:31:40 14° WNW 03:34:25 10° NW visible
31 Jul - 14:15:21 10° NNW 14:20:36 73° WSW 14:25:22 10° SSE daylight
01 Aug - 01:03:29 10° SSE 01:07:00 19° ESE 01:10:42 10° ENE night (unlit)
01 Aug - 02:44:51 10° SW 02:49:17 28° WNW 02:54:03 10° N visible
01 Aug - 13:33:13 10° N 13:38:21 51° ENE 13:42:59 10° SE daylight
02 Aug - 02:01:54 10° SSW 02:06:57 59° WNW 02:12:30 10° N night (unlit)
02 Aug - 12:51:51 10° NNE 12:56:00 24° ENE 12:59:52 10° ESE daylight
02 Aug - 14:34:44 10° WNW 14:38:17 19° WSW 14:41:38 10° SSW daylight
03 Aug - 01:19:38 10° S 01:24:42 66° ESE 01:30:16 10° NNE night (unlit)
03 Aug - 12:12:25 10° NE 12:13:36 11° ENE 12:14:45 10° E daylight
03 Aug - 13:51:16 10° NW 13:56:07 41° WSW 14:00:34 10° S daylight
04 Aug - 00:38:00 10° S 00:42:30 31° ESE 00:47:20 10° NE night (unlit)
04 Aug - 02:21:27 10° WSW 02:24:56 18° WNW 02:28:37 10° NNW night (unlit)
04 Aug - 13:08:40 10° NNW 13:13:54 88° ENE 13:18:39 10° SSE daylight
04 Aug - 23:57:29 10° SE 00:00:20 15° ESE 00:03:17 10° ENE night (unlit)
05 Aug - 01:37:49 10° SW 01:42:34 36° WNW 01:47:43 10° N night (unlit)
05 Aug - 12:26:45 10° N 12:31:37 39° ENE 12:36:04 10° SE daylight
05 Aug - 14:12:48 10° W 14:13:47 11° WSW 14:14:46 10° WSW daylight
06 Aug - 00:55:06 10° SSW 01:00:15 76° WNW 01:05:55 10° NNE night (unlit)
06 Aug - 11:45:43 10° NNE 11:49:15 18° ENE 11:52:35 10° ESE daylight
06 Aug - 13:27:33 10° NW 13:31:36 24° WSW 13:35:24 10° SSW daylight
07 Aug - 00:13:01 10° S 00:18:01 52° ESE 00:23:29 10° NNE night (unlit)
07 Aug - 01:59:43 10° WNW 02:00:37 10° WNW 02:01:32 10° WNW night (unlit)
07 Aug - 12:44:25 10° NNW 12:49:26 53° WSW 12:54:01 10° S daylight
07 Aug - 23:31:39 10° SSE 23:35:51 25° ESE 23:40:19 10° NE night (unlit)
